Wind_Speed
25 25 27 27 27 26 26 25 24 23 21 19 17 15 14 14 13 12 11 11 10 9 7 8 8 8 7 8 8 7 8 8 8 10 11 13 15 16 16 17 19 19 19 19
28 27 28 30 29 28 28 28 27 25 24 22 20 17 16 16 15 14 13 13 13 12 10 10 11 10 10 10 9 8 8 8 9 10 11 12 14 15 16 16 17 19 20 20
32 31 30 31 31 31 31 30 29 27 25 23 21 20 19 19 19 18 17 16 15 15 14 14 13 13 12 11 10 10 10 10 10 10 10 12 13 14 16 17 17 18 19 20
38 36 36 33 31 31 32 32 32 30 29 27 25 24 23 22 21 21 20 20 18 17 18 18 17 16 16 14 13 12 11 10 10 10 10 10 11 12 15 16 18 19 20 21
41 41 40 38 35 34 34 34 32 32 31 29 27 25 25 24 23 22 22 22 22 20 20 20 20 18 18 17 16 15 14 13 13 12 12 12 13 13 15 16 17 18 19 20
43 43 42 40 38 37 36 35 32 32 31 30 28 27 26 27 25 24 24 24 24 23 23 22 22 21 20 19 18 17 17 16 17 16 15 15 16 16 16 17 19 20 20 21
43 43 42 40 39 37 36 34 32 32 30 30 29 29 28 27 27 25 25 24 24 24 23 23 23 23 21 20 19 19 19 18 18 19 18 18 18 19 19 20 20 21 22 23
42 43 41 39 38 37 36 34 33 32 30 29 29 28 27 26 26 27 26 25 24 23 23 24 24 24 23 22 22 21 20 20 21 21 21 20 20 21 20 20 19 21 23 24
38 40 39 38 37 36 35 33 32 31 30 29 28 28 27 26 26 26 26 26 25 25 25 25 25 25 24 23 23 23 22 22 22 22 22 21 21 21 22 22 22 23 24 25
35 36 37 36 35 34 34 33 32 31 30 28 27 27 26 25 25 25 25 25 25 25 25 24 24 24 24 24 24 23 23 23 23 22 22 22 21 22 23 24 25 26 27 27
34 34 33 33 32 32 32 32 31 29 28 27 26 26 25 24 23 23 24 24 24 24 24 23 24 24 24 24 24 23 23 23 22 22 22 23 24 24 26 27 28 29 29 30
35 33 31 30 30 29 29 29 28 27 26 26 25 25 25 24 24 23 23 23 22 22 21 22 22 22 22 23 24 24 25 25 25 25 24 25 25 26 27 29 30 30 31 32
32 32 32 30 29 28 28 28 28 27 25 25 25 25 24 24 23 23 22 21 21 21 21 22 22 22 23 23 24 24 24 24 25 25 25 25 25 27 28 28 28 29 31 33
29 29 29 29 28 27 26 25 25 25 25 24 23 23 23 22 22 21 21 20 19 19 19 20 20 21 21 21 22 23 23 23 24 25 25 26 26 27 27 28 30 31 33 33
27 27 27 27 27 26 25 25 23 23 23 22 21 20 20 20 20 19 18 18 18 18 18 18 19 19 20 20 21 21 22 23 24 25 25 25 26 27 28 30 31 32 33 34
26 26 26 25 25 25 24 23 23 21 21 20 19 18 17 17 17 17 16 16 16 17 17 18 18 19 19 19 20 20 22 22 23 23 25 26 26 27 28 30 31 32 33 33
26 25 24 23 23 24 23 23 23 21 20 19 18 18 17 16 16 15 15 15 15 15 15 15 16 17 18 18 20 21 21 22 23 24 25 26 26 26 27 29 30 31 32 33
24 23 23 23 22 22 21 21 21 20 19 18 18 18 17 16 16 15 15 15 14 14 14 14 15 15 16 18 19 20 20 21 22 22 23 24 25 26 28 29 30 31 33 34
20 20 21 21 20 19 19 20 20 18 17 16 16 15 15 14 14 14 14 13 13 13 13 13 14 15 15 16 18 18 19 20 21 22 23 25 26 28 28 29 31 32 33 34
17 18 18 18 17 16 16 16 17 16 15 14 13 13 13 12 12 12 12 12 12 13 13 14 14 14 15 16 17 19 19 20 21 22 23 25 26 27 28 29 30 31 32 33
16 16 16 15 15 15 15 14 14 14 13 12 11 11 11 11 10 11 11 11 11 12 12 13 13 14 15 16 17 19 20 21 22 23 25 26 27 27 28 29 30 30 31 32
15 16 15 14 14 14 14 13 13 13 12 11 10 10 10 10 10 10 10 11 11 11 11 12 13 14 16 17 18 19 20 21 23 24 24 25 26 27 28 28 29 30 30 31
14 15 15 15 14 14 13 12 12 11 10 10 10 10 10 10 9 9 9 9 9 10 11 12 14 15 17 18 19 20 20 21 22 23 24 25 26 27 27 28 29 29 29 29
14 14 14 14 13 13 12 12 11 10 10 9 9 9 9 9 9 8 8 9 10 11 12 14 15 17 18 18 19 20 21 21 22 23 24 25 26 26 27 27 27 27 27 26
14 14 13 12 11 11 11 11 10 10 9 9 9 8 8 8 8 9 10 11 12 13 14 16 17 18 18 19 20 21 21 22 23 24 25 25 26 25 25 25 24 24 23 23
12 12 12 12 11 10 9 9 9 9 8 8 8 8 9 9 10 11 11 12 13 15 17 18 18 19 19 20 21 21 22 23 23 24 24 23 23 23 23 22 22 21 21 22
11 11 10 10 10 9 8 8 8 8 8 8 9 9 10 11 12 13 14 15 16 17 18 18 19 20 20 21 21 22 22 22 22 22 22 21 21 21 21 21 20 20 20 20
Wind_Direction
236 233 234 237 242 247 251 256 262 267 273 277 282 286 285 281 280 279 277 282 288 287 301 306 305 304 305 299 293 284 273 262 251 243 238 234 231 230 230 233 236 238 241 243
242 240 240 242 245 250 255 259 263 267 271 276 280 282 282 278 276 279 276 276 282 284 288 294 300 299 303 302 292 285 276 264 254 254 240 235 233 233 235 237 239 241 241 244
245 246 247 247 249 254 258 261 265 267 269 271 275 277 277 274 273 274 277 276 276 277 280 283 288 292 292 294 288 283 279 263 255 256 253 246 244 242 241 241 243 246 245 247
246 249 249 251 253 256 260 263 265 267 269 270 271 272 273 272 272 273 274 274 274 274 274 279 281 283 284 283 279 277 278 268 257 256 257 253 247 245 245 247 250 252 251 249
245 248 251 252 254 258 262 263 264 267 268 269 268 269 268 270 272 273 273 273 272 271 273 277 279 280 279 275 271 270 270 265 258 256 254 254 251 250 250 252 254 251 250 248
244 247 249 252 254 257 261 263 264 266 266 266 265 267 266 267 269 269 270 271 267 268 271 272 274 273 273 272 268 267 266 264 258 254 253 252 251 252 254 255 257 253 254 254
244 247 249 251 254 256 259 263 264 265 265 265 264 265 266 264 265 266 270 269 266 268 268 269 269 267 265 264 266 264 261 259 256 255 254 256 254 256 257 257 258 256 257 260
244 245 248 250 253 255 258 259 262 263 264 264 264 264 261 259 261 263 267 266 265 265 264 265 266 263 260 259 261 262 261 257 256 257 256 260 256 257 258 258 259 260 261 264
244 246 247 248 250 253 255 256 258 260 261 263 263 262 260 259 260 262 265 265 264 265 264 264 263 261 258 256 257 258 257 256 254 256 255 257 257 258 260 260 262 266 267 268
243 244 246 247 248 250 251 253 255 257 258 260 260 259 257 259 260 261 262 262 263 264 263 262 260 259 256 254 255 254 254 255 253 253 255 259 261 263 265 267 269 269 269 270
242 242 244 245 245 247 249 251 252 253 254 256 257 256 258 260 258 261 264 263 262 262 261 259 258 257 255 253 252 253 253 253 251 253 257 260 265 268 267 267 269 270 271 273
239 240 243 242 244 246 246 247 248 250 252 253 254 255 257 258 259 262 264 265 264 260 259 258 257 253 253 253 252 252 253 252 255 258 261 262 264 266 268 268 269 273 273 277
239 239 241 242 241 243 245 245 245 248 251 252 253 255 258 259 260 260 261 261 262 260 257 255 254 253 253 254 253 251 252 254 258 260 263 267 266 265 268 269 271 273 276 278
237 238 240 240 238 239 242 242 245 247 250 252 252 251 253 256 258 259 259 258 259 257 255 254 254 254 253 254 253 253 254 256 259 261 264 266 267 268 269 273 276 275 276 278
236 236 238 239 237 236 238 240 243 246 247 247 247 248 250 253 253 253 254 256 257 255 254 254 253 251 253 255 255 257 257 260 261 261 265 266 265 268 270 274 276 277 279 280
234 235 236 236 234 233 234 235 237 241 242 242 242 244 247 249 251 250 252 254 255 255 255 255 254 254 253 253 254 257 259 260 262 262 264 266 268 270 273 275 276 279 282 284
233 233 233 232 232 230 230 232 234 236 237 237 237 240 243 245 248 250 249 251 253 253 253 252 254 254 254 254 257 259 260 262 262 264 268 269 271 274 277 280 282 284 286 288
229 227 226 225 226 226 226 226 226 230 232 232 234 237 239 241 245 246 246 247 248 250 251 251 253 255 258 262 262 263 263 262 263 267 271 275 279 282 284 285 286 288 290 293
218 217 217 217 217 218 218 220 222 224 225 228 231 234 235 235 237 237 237 241 246 248 252 256 258 259 261 262 264 265 264 266 269 273 278 281 283 285 286 288 290 292 294 296
208 206 205 207 208 208 209 211 213 214 217 222 225 228 226 226 230 234 237 243 248 253 256 256 256 258 262 264 267 270 272 274 278 280 282 284 286 289 291 293 295 297 299 301
196 197 196 196 197 199 200 200 201 205 211 214 215 219 222 224 227 233 238 244 250 253 255 257 259 264 267 270 274 277 278 278 282 285 287 289 291 293 295 298 300 302 303 305
184 185 185 187 190 193 194 194 194 196 199 202 206 212 218 223 229 235 241 248 252 254 258 263 268 272 275 277 280 282 283 286 289 291 293 295 297 299 300 302 304 305 307 307
173 176 178 177 179 182 183 182 184 188 193 198 203 208 216 223 228 235 241 247 255 260 266 272 275 278 281 284 287 289 291 293 294 296 298 300 302 303 305 306 307 309 310 310
160 163 165 167 171 175 178 183 188 193 200 203 206 214 222 230 234 238 248 259 268 273 276 280 284 287 289 291 293 295 296 297 298 300 302 303 305 306 308 309 310 312 313 315
154 155 160 165 172 179 186 192 198 204 208 208 213 220 228 236 247 260 269 273 277 280 284 288 290 291 294 295 297 298 300 301 302 303 304 306 307 308 310 311 313 315 317 318
156 161 167 173 178 183 188 192 195 200 207 215 225 235 245 255 263 269 274 279 283 286 289 291 293 295 297 298 300 302 304 304 305 306 308 309 310 311 313 315 316 317 319 320
150 155 162 169 173 179 187 195 204 215 226 235 244 253 261 267 270 274 279 284 287 290 291 293 294 296 298 300 301 302 303 305 306 307 309 311 313 314 315 315 316 317 319 321
Height
5797 5800 5802 5804 5806 5808 5810 5812 5814 5816 5818 5819 5820 5821 5822 5822 5822 5822 5822 5822 5822 5821 5820 5820 5820 5819 5818 5818 5818 5817 5817 5816 5817 5817 5817 5818 5819 5821 5823 5825 5827 5829 5831 5833
5790 5794 5796 5798 5801 5803 5805 5807 5809 5811 5813 5814 5815 5817 5817 5818 5818 5819 5819 5819 5819 5819 5818 5818 5817 5817 5816 5816 5815 5815 5815 5815 5815 5815 5815 5815 5817 5818 5820 5822 5824 5825 5827 5829
5783 5787 5789 5792 5795 5797 5799 5801 5803 5805 5808 5809 5811 5812 5813 5813 5814 5814 5815 5815 5815 5815 5815 5815 5815 5814 5814 5813 5813 5813 5813 5813 5813 5813 5813 5814 5815 5816 5817 5818 5820 5821 5822 5824
5776 5780 5782 5787 5789 5791 5792 5794 5796 5798 5801 5803 5805 5806 5807 5808 5808 5809 5810 5810 5810 5810 5811 5811 5811 5810 5810 5810 5810 5810 5810 5810 5810 5810 5810 5811 5812 5813 5814 5815 5816 5816 5817 5819
5767 5770 5773 5778 5781 5783 5785 5787 5789 5791 5793 5795 5797 5799 5800 5801 5802 5803 5804 5804 5804 5805 5805 5805 5805 5805 5805 5805 5806 5806 5806 5806 5807 5807 5807 5808 5808 5809 5810 5811 5811 5811 5812 5813
5758 5761 5764 5770 5773 5775 5778 5779 5782 5784 5786 5788 5790 5792 5794 5794 5795 5796 5797 5797 5797 5798 5798 5799 5799 5800 5800 5801 5801 5801 5802 5802 5802 5802 5803 5803 5804 5804 5805 5806 5806 5806 5807 5808
5749 5752 5755 5760 5764 5767 5770 5773 5775 5776 5777 5779 5782 5784 5786 5787 5788 5789 5789 5790 5790 5791 5791 5792 5793 5793 5794 5795 5795 5796 5797 5797 5797 5797 5797 5798 5798 5799 5800 5801 5801 5801 5801 5802
5739 5743 5749 5752 5755 5759 5761 5764 5766 5768 5769 5771 5773 5775 5777 5779 5780 5781 5782 5783 5783 5784 5785 5785 5786 5787 5788 5788 5790 5790 5791 5791 5792 5792 5792 5792 5792 5794 5794 5795 5795 5795 5795 5795
5731 5736 5740 5743 5747 5750 5752 5755 5758 5760 5762 5764 5766 5767 5769 5771 5772 5773 5774 5775 5776 5777 5777 5778 5778 5780 5781 5781 5783 5783 5784 5785 5785 5786 5786 5786 5786 5787 5788 5789 5789 5789 5789 5788
5722 5726 5730 5735 5738 5741 5744 5747 5749 5752 5754 5756 5758 5760 5761 5763 5764 5766 5766 5767 5768 5769 5769 5770 5771 5772 5773 5775 5776 5776 5777 5778 5779 5779 5780 5781 5781 5781 5782 5782 5782 5782 5781 5781
5715 5718 5722 5726 5730 5733 5736 5739 5741 5744 5746 5749 5751 5752 5754 5755 5757 5758 5759 5759 5760 5761 5761 5762 5763 5764 5766 5767 5769 5770 5770 5771 5772 5773 5773 5774 5774 5774 5774 5774 5774 5774 5773 5772
5707 5711 5715 5719 5722 5725 5728 5731 5734 5736 5739 5741 5743 5745 5746 5748 5749 5750 5751 5752 5752 5753 5754 5755 5756 5757 5758 5760 5762 5763 5764 5764 5765 5766 5766 5766 5767 5767 5766 5766 5766 5766 5765 5764
5699 5703 5707 5711 5714 5717 5720 5723 5726 5729 5732 5734 5736 5738 5740 5741 5742 5743 5744 5745 5746 5746 5747 5748 5750 5751 5752 5753 5755 5756 5757 5758 5758 5759 5759 5760 5760 5760 5760 5759 5758 5757 5757 5755
5691 5695 5699 5703 5707 5710 5713 5716 5719 5722 5725 5727 5729 5731 5733 5734 5735 5736 5737 5738 5739 5740 5741 5742 5743 5744 5745 5747 5748 5749 5750 5751 5752 5752 5753 5753 5753 5753 5752 5751 5751 5749 5748 5746
5685 5689 5692 5696 5700 5703 5706 5710 5713 5716 5718 5720 5722 5725 5726 5728 5729 5730 5732 5732 5733 5734 5735 5737 5738 5739 5740 5741 5742 5743 5743 5744 5745 5745 5745 5745 5745 5744 5744 5743 5742 5741 5739 5737
5678 5682 5685 5689 5693 5697 5700 5703 5707 5709 5712 5714 5716 5719 5721 5722 5724 5725 5726 5727 5728 5729 5730 5731 5732 5733 5734 5735 5736 5737 5737 5738 5738 5738 5738 5738 5737 5737 5736 5735 5733 5732 5730 5728
5672 5675 5679 5683 5687 5691 5694 5697 5701 5703 5706 5708 5711 5713 5715 5717 5718 5719 5721 5722 5723 5724 5725 5726 5727 5728 5729 5729 5730 5731 5731 5731 5732 5732 5732 5731 5730 5730 5728 5727 5725 5723 5721 5718
5666 5670 5674 5677 5681 5685 5689 5692 5695 5698 5701 5703 5706 5708 5710 5712 5714 5715 5716 5717 5719 5719 5720 5721 5722 5723 5724 5724 5724 5725 5725 5725 5725 5725 5725 5724 5723 5722 5720 5719 5717 5715 5712 5709
5661 5665 5669 5672 5676 5680 5684 5687 5690 5693 5696 5699 5701 5703 5705 5707 5709 5711 5713 5714 5715 5716 5717 5717 5718 5718 5719 5719 5719 5719 5719 5719 5719 5719 5718 5717 5716 5714 5712 5710 5708 5705 5702 5699
5657 5661 5665 5669 5673 5677 5680 5684 5687 5690 5693 5695 5698 5700 5702 5704 5706 5707 5709 5710 5711 5712 5713 5713 5714 5714 5715 5714 5714 5714 5714 5714 5713 5712 5711 5710 5708 5706 5704 5702 5699 5696 5693 5690
5655 5659 5663 5667 5670 5674 5678 5681 5684 5687 5690 5692 5695 5697 5699 5701 5703 5704 5705 5706 5707 5708 5709 5709 5710 5710 5710 5710 5709 5709 5709 5708 5707 5705 5704 5702 5700 5698 5696 5693 5690 5688 5684 5681
5654 5658 5662 5665 5669 5673 5676 5679 5682 5685 5688 5690 5693 5695 5697 5699 5700 5701 5702 5704 5704 5705 5705 5705 5706 5705 5705 5705 5704 5704 5703 5701 5700 5698 5697 5695 5692 5690 5688 5685 5682 5679 5676 5672
5654 5658 5661 5665 5669 5672 5675 5678 5681 5684 5686 5689 5691 5693 5695 5696 5697 5699 5700 5700 5701 5701 5701 5702 5701 5701 5700 5700 5699 5698 5696 5695 5693 5691 5690 5687 5685 5683 5680 5677 5674 5671 5668 5664
5656 5659 5662 5665 5669 5672 5675 5678 5681 5683 5685 5687 5689 5691 5693 5694 5695 5696 5697 5697 5697 5698 5698 5697 5697 5696 5695 5694 5693 5692 5690 5688 5687 5685 5683 5680 5678 5675 5673 5670 5667 5663 5660 5656
5658 5661 5663 5666 5669 5672 5675 5677 5680 5682 5684 5686 5688 5689 5690 5691 5693 5693 5694 5694 5694 5694 5693 5693 5692 5691 5690 5689 5687 5685 5684 5682 5680 5678 5676 5673 5671 5668 5666 5663 5660 5657 5653 5650
5660 5662 5665 5667 5670 5672 5675 5677 5679 5681 5683 5685 5686 5687 5688 5689 5690 5690 5690 5690 5690 5689 5689 5688 5687 5686 5685 5683 5681 5679 5678 5676 5674 5671 5669 5667 5664 5662 5659 5657 5654 5651 5648 5645
5662 5664 5666 5668 5670 5673 5675 5677 5678 5680 5682 5683 5684 5685 5686 5686 5686 5686 5686 5686 5685 5684 5684 5683 5682 5680 5679 5677 5675 5674 5672 5670 5668 5665 5663 5661 5658 5656 5653 5651 5648 5646 5643 5640